No particular awareness of the weather is required.    There are no Weather-warnings


Meteo18 Weather Cam more information Meteo18 Weather Cam


Thunder radar more information blitzortung!


Rain radar more information rain snow radar


Visit our other weather sites:

Template documentation
and downloads

And another site



Weather Underground History page Text

Daily Summary for August 21, 2017 Units:  English    Metric   Both
« Previous Day
Next Day »
Daily Weekly Monthly Yearly Custom
  High: Low: Average:
Temperature: TemperatureC °F 12.4 °F 19.2 °F
Dew Point: DewpointC °F 10.1 °F 12.7 °F
Humidity: Humidity % 47 % 68 %
Wind Speed: WindSpeedKMH mph 0.0 mph 2.1 mph
Wind Gust: WindSpeedGustKMH mph - -
Wind:- - ESE
Pressure: PressurehPa in 1021.2 in -
Precipitation: 0.0 in    
Historical Graphs
 
 
Tabular Data for August 21, 2017
Time Temperature Dew Point Pressure Wind Wind Speed Wind Gust Humidity Rainfall Rate (Hourly)
TemperatureC °F DewpointC °F PressurehPa in Calm     Humidity % HourlyPrecipMM in
00:02 14.0 °F 11.0 °F 1026.0 in Calm   1.6 mph 82 % 0.0 in
00:12 14.0 °F 10.8 °F 1026.0 in Calm   1.6 mph 81 % 0.0 in
00:17 13.8 °F 10.8 °F 1026.0 in Calm   1.6 mph 82 % 0.0 in
00:22 13.9 °F 10.7 °F 1026.0 in Calm   1.6 mph 81 % 0.0 in
00:32 14.2 °F 10.8 °F 1026.0 in Calm   1.6 mph 80 % 0.0 in
00:37 14.1 °F 10.7 °F 1026.0 in Calm   1.6 mph 80 % 0.0 in
00:42 14.1 °F 10.7 °F 1026.0 in Calm   1.6 mph 80 % 0.0 in
00:52 13.6 °F 10.8 °F 1026.0 in Calm   1.6 mph 83 % 0.0 in
00:57 13.4 °F 10.8 °F 1026.0 in Calm   1.6 mph 84 % 0.0 in
01:02 13.2 °F 10.6 °F 1026.0 in WNW 1.6 mph 1.6 mph 84 % 0.0 in
01:09 13.1 °F 10.5 °F 1026.0 in Calm   3.2 mph 84 % 0.0 in
01:17 13.1 °F 10.6 °F 1026.0 in WNW 1.6 mph 3.2 mph 85 % 0.0 in
01:22 13.2 °F 10.6 °F 1026.0 in Calm   1.6 mph 84 % 0.0 in
01:29 13.4 °F 10.6 °F 1026.0 in Calm   1.6 mph 83 % 0.0 in
01:37 13.3 °F 10.5 °F 1026.0 in Calm   1.6 mph 83 % 0.0 in
01:42 13.2 °F 10.4 °F 1025.6 in Calm   1.6 mph 83 % 0.0 in
01:47 13.2 °F 10.6 °F 1025.6 in Calm   1.6 mph 84 % 0.0 in
01:52 13.1 °F 10.5 °F 1025.6 in Calm   1.6 mph 84 % 0.0 in
01:57 12.9 °F 10.4 °F 1025.6 in Calm   1.6 mph 85 % 0.0 in
02:02 12.9 °F 10.4 °F 1025.6 in Calm   1.6 mph 85 % 0.0 in
02:12 13.4 °F 10.4 °F 1025.6 in Calm   3.2 mph 82 % 0.0 in
02:17 13.4 °F 10.4 °F 1026.0 in Calm   3.2 mph 82 % 0.0 in
02:22 13.3 °F 10.3 °F 1025.6 in Calm   3.2 mph 82 % 0.0 in
02:32 13.3 °F 10.3 °F 1025.6 in Calm   1.6 mph 82 % 0.0 in
02:42 13.1 °F 10.3 °F 1025.6 in Calm     83 % 0.0 in
02:47 12.9 °F 10.3 °F 1025.6 in Calm     84 % 0.0 in
02:52 12.8 °F 10.3 °F 1025.6 in Calm     85 % 0.0 in
03:02 12.8 °F 10.3 °F 1025.6 in Calm     85 % 0.0 in
03:12 12.7 °F 10.2 °F 1025.6 in Calm     85 % 0.0 in
03:17 12.5 °F 10.2 °F 1025.6 in Calm     86 % 0.0 in
03:22 12.5 °F 10.2 °F 1025.6 in Calm     86 % 0.0 in
03:32 12.4 °F 10.1 °F 1025.6 in Calm     86 % 0.0 in
03:42 12.4 °F 10.1 °F 1025.6 in Calm     86 % 0.0 in
03:47 12.4 °F 10.1 °F 1025.6 in Calm     86 % 0.0 in
03:52 12.4 °F 10.1 °F 1025.3 in Calm     86 % 0.0 in
03:57 12.4 °F 10.3 °F 1025.3 in Calm     87 % 0.0 in
04:02 12.5 °F 10.4 °F 1025.6 in Calm     87 % 0.0 in
04:07 12.6 °F 10.3 °F 1025.3 in Calm     86 % 0.0 in
04:12 12.7 °F 10.6 °F 1025.3 in Calm     87 % 0.0 in
04:17 12.7 °F 10.6 °F 1025.3 in Calm     87 % 0.0 in
04:22 12.8 °F 10.7 °F 1025.3 in Calm     87 % 0.0 in
04:32 12.9 °F 11.0 °F 1025.3 in Calm     88 % 0.0 in
04:42 13.0 °F 11.1 °F 1025.3 in Calm     88 % 0.0 in
04:47 13.1 °F 11.0 °F 1025.3 in Calm     87 % 0.0 in
04:52 13.2 °F 11.1 °F 1025.3 in Calm     87 % 0.0 in
05:02 13.3 °F 11.2 °F 1025.3 in Calm     87 % 0.0 in
05:12 13.4 °F 11.3 °F 1025.3 in Calm     87 % 0.0 in
05:22 13.4 °F 11.3 °F 1024.9 in Calm     87 % 0.0 in
05:32 13.4 °F 11.3 °F 1024.9 in Calm     87 % 0.0 in
05:42 13.3 °F 11.4 °F 1024.9 in Calm     88 % 0.0 in
05:52 13.3 °F 11.4 °F 1024.9 in Calm     88 % 0.0 in
05:57 13.3 °F 11.4 °F 1024.9 in Calm     88 % 0.0 in
06:02 13.3 °F 11.4 °F 1024.9 in Calm     88 % 0.0 in
06:12 13.4 °F 11.5 °F 1024.9 in Calm     88 % 0.0 in
06:17 13.5 °F 11.6 °F 1024.9 in Calm     88 % 0.0 in
06:22 13.5 °F 11.6 °F 1024.9 in Calm     88 % 0.0 in
06:32 13.6 °F 11.6 °F 1024.9 in Calm     88 % 0.0 in
06:37 13.6 °F 11.8 °F 1024.9 in Calm     89 % 0.0 in
06:42 13.7 °F 11.9 °F 1024.9 in Calm     89 % 0.0 in
06:52 13.7 °F 12.1 °F 1024.9 in Calm     90 % 0.0 in
06:57 13.8 °F 12.2 °F 1024.9 in Calm     90 % 0.0 in
07:02 13.8 °F 12.0 °F 1024.9 in Calm     89 % 0.0 in
07:12 13.8 °F 11.8 °F 1024.9 in Calm     88 % 0.0 in
07:17 13.9 °F 12.1 °F 1024.9 in Calm     89 % 0.0 in
07:22 13.8 °F 11.7 °F 1024.9 in Calm     87 % 0.0 in
07:32 14.1 °F 11.8 °F 1024.9 in Calm     86 % 0.0 in
07:37 14.1 °F 11.6 °F 1024.9 in Calm     85 % 0.0 in
07:42 14.2 °F 11.4 °F 1024.9 in Calm     83 % 0.0 in
07:52 14.4 °F 11.5 °F 1024.9 in Calm     83 % 0.0 in
07:57 14.6 °F 11.7 °F 1024.9 in Calm     83 % 0.0 in
08:02 14.7 °F 11.5 °F 1025.3 in Calm     81 % 0.0 in
08:12 15.2 °F 11.8 °F 1025.3 in Calm     80 % 0.0 in
08:17 15.2 °F 11.6 °F 1025.3 in Calm     79 % 0.0 in
08:22 15.2 °F 11.6 °F 1025.3 in Calm     79 % 0.0 in
08:32 15.0 °F 11.8 °F 1025.3 in Calm     81 % 0.0 in
08:42 15.2 °F 11.8 °F 1025.3 in Calm     80 % 0.0 in
08:47 15.3 °F 12.1 °F 1025.3 in Calm     81 % 0.0 in
08:57 15.9 °F 12.3 °F 1024.9 in Calm   1.6 mph 79 % 0.0 in
09:07 16.4 °F 12.0 °F 1024.9 in SSW 3.2 mph 6.4 mph 75 % 0.0 in
09:12 16.7 °F 12.2 °F 1025.3 in SSW 1.6 mph 6.4 mph 75 % 0.0 in
09:17 16.9 °F 12.0 °F 1025.3 in Calm   6.4 mph 73 % 0.0 in
09:22 17.3 °F 12.2 °F 1024.9 in SSW 1.6 mph 6.4 mph 72 % 0.0 in
09:27 17.6 °F 12.5 °F 1024.9 in SSE 3.2 mph 3.2 mph 72 % 0.0 in
09:32 17.7 °F 12.4 °F 1024.9 in SSW 1.6 mph 3.2 mph 71 % 0.0 in
09:42 18.3 °F 12.3 °F 1024.9 in WSW 3.2 mph 6.4 mph 68 % 0.0 in
09:52 18.4 °F 11.9 °F 1024.9 in SW 3.2 mph 6.4 mph 66 % 0.0 in
09:57 18.6 °F 12.1 °F 1024.9 in SSE 1.6 mph 8.0 mph 66 % 0.0 in
10:02 18.9 °F 12.2 °F 1024.9 in SW 8.0 mph 8.0 mph 65 % 0.0 in
10:12 19.3 °F 12.8 °F 1024.9 in SW 8.0 mph 9.7 mph 66 % 0.0 in
10:22 19.4 °F 12.2 °F 1024.9 in SW 3.2 mph 9.7 mph 63 % 0.0 in
10:32 19.8 °F 12.6 °F 1024.9 in SSW 6.4 mph 9.7 mph 63 % 0.0 in
10:42 19.9 °F 11.6 °F 1024.9 in South 4.8 mph 8.0 mph 59 % 0.0 in
10:47 20.1 °F 12.1 °F 1024.9 in WSW 3.2 mph 9.7 mph 60 % 0.0 in
10:52 20.2 °F 11.7 °F 1024.9 in SSW 6.4 mph 9.7 mph 58 % 0.0 in
10:57 20.2 °F 11.7 °F 1024.9 in SW 8.0 mph 11.3 mph 58 % 0.0 in
11:02 20.3 °F 12.3 °F 1024.9 in SSW 1.6 mph 11.3 mph 60 % 0.0 in
11:12 21.1 °F 12.5 °F 1024.6 in SW 6.4 mph 11.3 mph 58 % 0.0 in
11:17 21.1 °F 12.0 °F 1024.6 in Calm   8.0 mph 56 % 0.0 in
11:22 21.3 °F 11.6 °F 1024.6 in South 3.2 mph 8.0 mph 54 % 0.0 in
11:32 21.6 °F 11.9 °F 1024.3 in Calm   8.0 mph 54 % 0.0 in
11:42 22.0 °F 12.0 °F 1024.3 in SSW 1.6 mph 9.7 mph 53 % 0.0 in
11:52 22.4 °F 12.3 °F 1024.6 in Calm   8.0 mph 53 % 0.0 in
12:02 22.8 °F 11.8 °F 1024.6 in Calm   6.4 mph 50 % 0.0 in
12:12 22.6 °F 11.9 °F 1024.3 in ENE 6.4 mph 6.4 mph 51 % 0.0 in
12:17 22.4 °F 11.8 °F 1024.3 in ENE 1.6 mph 6.4 mph 51 % 0.0 in
12:22 22.6 °F 12.2 °F 1024.3 in Calm   6.4 mph 52 % 0.0 in
12:32 22.4 °F 12.1 °F 1024.3 in SSW 1.6 mph 11.3 mph 52 % 0.0 in
12:42 23.6 °F 12.6 °F 1024.3 in ENE 4.8 mph 8.0 mph 50 % 0.0 in
12:47 23.6 °F 12.3 °F 1024.3 in East 8.0 mph 8.0 mph 49 % 0.0 in
12:52 22.7 °F 12.0 °F 1024.3 in SW 6.4 mph 8.0 mph 51 % 0.0 in
13:02 23.3 °F 12.6 °F 1024.3 in NNE 4.8 mph 9.7 mph 51 % 0.0 in
13:07 23.5 °F 13.1 °F 1024.3 in NNW 6.4 mph 14.5 mph 52 % 0.0 in
13:12 23.6 °F 12.9 °F 1024.3 in ENE 6.4 mph 14.5 mph 51 % 0.0 in
13:17 23.3 °F 12.6 °F 1023.9 in East 4.8 mph 16.1 mph 51 % 0.0 in
13:22 23.3 °F 12.9 °F 1023.9 in North 4.8 mph 16.1 mph 52 % 0.0 in
13:32 23.6 °F 12.6 °F 1023.9 in NW 1.6 mph 14.5 mph 50 % 0.0 in
13:42 23.7 °F 12.7 °F 1023.6 in NNE 4.8 mph 8.0 mph 50 % 0.0 in
13:47 23.9 °F 13.4 °F 1023.6 in North 6.4 mph 8.0 mph 52 % 0.0 in
13:52 24.0 °F 13.2 °F 1023.6 in Calm   8.0 mph 51 % 0.0 in
14:02 24.5 °F 13.1 °F 1023.6 in NNW 3.2 mph 9.7 mph 49 % 0.0 in
14:07 24.3 °F 13.5 °F 1023.6 in NE 3.2 mph 6.4 mph 51 % 0.0 in
14:12 24.5 °F 13.4 °F 1023.6 in NNE 4.8 mph 6.4 mph 50 % 0.0 in
14:17 24.5 °F 13.1 °F 1023.2 in NE 4.8 mph 11.3 mph 49 % 0.0 in
14:22 24.2 °F 13.1 °F 1023.2 in NW 1.6 mph 11.3 mph 50 % 0.0 in
14:32 24.8 °F 13.7 °F 1023.2 in Calm   11.3 mph 50 % 0.0 in
14:42 25.3 °F 13.5 °F 1023.2 in SE 1.6 mph 4.8 mph 48 % 0.0 in
14:47 25.4 °F 13.6 °F 1023.2 in SSW 3.2 mph 4.8 mph 48 % 0.0 in
14:57 25.7 °F 13.5 °F 1023.2 in NNE 3.2 mph 8.0 mph 47 % 0.0 in
15:02 25.4 °F 13.3 °F 1022.9 in Calm   8.0 mph 47 % 0.0 in
15:12 25.7 °F 13.9 °F 1022.9 in ENE 3.2 mph 8.0 mph 48 % 0.0 in
15:17 25.7 °F 13.5 °F 1022.9 in ENE 3.2 mph 8.0 mph 47 % 0.0 in
15:22 25.4 °F 13.6 °F 1022.9 in ENE 9.7 mph 11.3 mph 48 % 0.0 in
15:32 25.0 °F 13.5 °F 1022.6 in Calm   11.3 mph 49 % 0.0 in
15:37 25.1 °F 13.6 °F 1022.6 in Calm   11.3 mph 49 % 0.0 in
15:42 25.6 °F 14.1 °F 1022.6 in ENE 4.8 mph 9.7 mph 49 % 0.0 in
15:47 25.7 °F 13.9 °F 1022.6 in Calm   8.0 mph 48 % 0.0 in
15:52 26.0 °F 14.1 °F 1022.6 in North 3.2 mph 6.4 mph 48 % 0.0 in
16:02 25.9 °F 14.0 °F 1022.2 in WSW 8.0 mph 8.0 mph 48 % 0.0 in
16:07 25.8 °F 14.6 °F 1022.2 in Calm   8.0 mph 50 % 0.0 in
16:17 26.1 °F 14.2 °F 1022.2 in NE 6.4 mph 8.0 mph 48 % 0.0 in
16:22 26.2 °F 14.3 °F 1022.2 in NE 3.2 mph 9.7 mph 48 % 0.0 in
16:32 26.2 °F 14.3 °F 1022.2 in SSW 1.6 mph 9.7 mph 48 % 0.0 in
16:42 26.6 °F 14.4 °F 1022.2 in WSW 4.8 mph 8.0 mph 47 % 0.0 in
16:47 26.7 °F 14.5 °F 1022.2 in Calm   9.7 mph 47 % 0.0 in
16:52 26.9 °F 14.6 °F 1022.2 in Calm   9.7 mph 47 % 0.0 in
17:02 26.9 °F 14.6 °F 1021.9 in WNW 4.8 mph 8.0 mph 47 % 0.0 in
17:12 26.4 °F 14.8 °F 1021.9 in NNW 3.2 mph 8.0 mph 49 % 0.0 in
17:17 26.3 °F 14.4 °F 1021.9 in North 4.8 mph 14.5 mph 48 % 0.0 in
17:22 26.3 °F 14.1 °F 1021.9 in NNE 1.6 mph 14.5 mph 47 % 0.0 in
17:32 26.2 °F 14.3 °F 1021.9 in South 1.6 mph 14.5 mph 48 % 0.0 in
17:37 26.7 °F 14.8 °F 1021.9 in Calm   6.4 mph 48 % 0.0 in
17:42 26.4 °F 14.5 °F 1021.9 in East 3.2 mph 6.4 mph 48 % 0.0 in
17:52 26.0 °F 14.5 °F 1021.9 in Calm   8.0 mph 49 % 0.0 in
18:02 25.8 °F 14.3 °F 1021.6 in East 3.2 mph 8.0 mph 49 % 0.0 in
18:07 25.9 °F 14.4 °F 1021.6 in ENE 3.2 mph 8.0 mph 49 % 0.0 in
18:17 26.0 °F 14.5 °F 1021.6 in WNW 6.4 mph 9.7 mph 49 % 0.0 in
18:22 26.1 °F 14.5 °F 1021.6 in Calm   9.7 mph 49 % 0.0 in
18:32 27.2 °F 14.9 °F 1021.6 in North 3.2 mph 6.4 mph 47 % 0.0 in
18:42 26.4 °F 14.5 °F 1021.6 in NE 9.7 mph 9.7 mph 48 % 0.0 in
18:52 25.9 °F 15.0 °F 1021.6 in NE 6.4 mph 11.3 mph 51 % 0.0 in
18:57 25.8 °F 14.9 °F 1021.6 in NE 1.6 mph 11.3 mph 51 % 0.0 in
19:02 25.7 °F 14.8 °F 1021.6 in ENE 8.0 mph 11.3 mph 51 % 0.0 in
19:12 25.3 °F 14.7 °F 1021.6 in ENE 8.0 mph 14.5 mph 52 % 0.0 in
19:17 25.2 °F 14.9 °F 1021.6 in NNE 6.4 mph 11.3 mph 53 % 0.0 in
19:22 25.3 °F 15.0 °F 1021.6 in NE 6.4 mph 11.3 mph 53 % 0.0 in
19:32 25.4 °F 14.8 °F 1021.2 in NE 3.2 mph 9.7 mph 52 % 0.0 in
19:42 25.3 °F 15.0 °F 1021.2 in NE 6.4 mph 9.7 mph 53 % 0.0 in
19:52 25.1 °F 14.8 °F 1021.2 in NE 3.2 mph 11.3 mph 53 % 0.0 in
19:57 25.1 °F 14.8 °F 1021.2 in NE 9.7 mph 12.9 mph 53 % 0.0 in
20:02 24.9 °F 15.2 °F 1021.2 in NNE 6.4 mph 12.9 mph 55 % 0.0 in
20:12 24.6 °F 15.2 °F 1021.2 in NE 4.8 mph 14.5 mph 56 % 0.0 in
20:17 24.4 °F 15.3 °F 1021.2 in NNE 6.4 mph 9.7 mph 57 % 0.0 in
20:22 24.3 °F 15.2 °F 1021.2 in NE 6.4 mph 9.7 mph 57 % 0.0 in
20:32 23.9 °F 15.4 °F 1021.2 in NNE 6.4 mph 11.3 mph 59 % 0.0 in
20:42 23.4 °F 15.4 °F 1021.6 in NE 3.2 mph 8.0 mph 61 % 0.0 in
20:47 23.1 °F 15.7 °F 1021.6 in North 4.8 mph 8.0 mph 63 % 0.0 in
20:52 22.8 °F 15.4 °F 1021.6 in NNE 6.4 mph 8.0 mph 63 % 0.0 in
20:57 22.7 °F 15.5 °F 1021.6 in NE 1.6 mph 8.0 mph 64 % 0.0 in
21:02 22.4 °F 15.5 °F 1021.6 in Calm   8.0 mph 65 % 0.0 in
21:07 22.1 °F 15.7 °F 1021.6 in NNE 3.2 mph 6.4 mph 67 % 0.0 in
21:12 21.8 °F 15.6 °F 1021.6 in NNE 3.2 mph 6.4 mph 68 % 0.0 in
21:17 21.6 °F 15.7 °F 1021.6 in NNE 3.2 mph 6.4 mph 69 % 0.0 in
21:22 21.4 °F 15.5 °F 1021.6 in NNE 1.6 mph 6.4 mph 69 % 0.0 in
21:27 21.2 °F 15.5 °F 1021.6 in NNE 3.2 mph 6.4 mph 70 % 0.0 in
21:32 21.0 °F 15.5 °F 1021.6 in NNE 3.2 mph 6.4 mph 71 % 0.0 in
21:42 20.7 °F 15.5 °F 1021.6 in NNE 3.2 mph 6.4 mph 72 % 0.0 in
21:52 20.3 °F 15.5 °F 1021.6 in Calm   4.8 mph 74 % 0.0 in
22:02 19.9 °F 15.3 °F 1021.6 in Calm   4.8 mph 75 % 0.0 in
22:12 19.8 °F 15.2 °F 1021.6 in NNE 3.2 mph 4.8 mph 75 % 0.0 in
22:17 19.7 °F 15.3 °F 1021.6 in NE 3.2 mph 4.8 mph 76 % 0.0 in
22:22 19.7 °F 15.3 °F 1021.6 in Calm   4.8 mph 76 % 0.0 in
22:27 19.7 °F 15.3 °F 1021.9 in Calm   6.4 mph 76 % 0.0 in
22:32 19.7 °F 15.3 °F 1021.9 in NE 4.8 mph 6.4 mph 76 % 0.0 in
22:42 19.6 °F 15.3 °F 1021.9 in Calm   4.8 mph 76 % 0.0 in
22:47 19.5 °F 15.2 °F 1021.9 in Calm   4.8 mph 76 % 0.0 in
22:52 19.4 °F 15.1 °F 1021.9 in North 1.6 mph 4.8 mph 76 % 0.0 in
23:02 19.3 °F 15.2 °F 1021.9 in NE 1.6 mph 3.2 mph 77 % 0.0 in
23:12 19.4 °F 15.1 °F 1021.9 in NNE 3.2 mph 6.4 mph 76 % 0.0 in
23:17 19.4 °F 15.1 °F 1021.9 in NNE 1.6 mph 6.4 mph 76 % 0.0 in
23:22 19.3 °F 15.0 °F 1021.6 in NNE 4.8 mph 6.4 mph 76 % 0.0 in
23:27 19.3 °F 15.0 °F 1021.6 in Calm   8.0 mph 76 % 0.0 in
23:32 19.2 °F 14.9 °F 1021.6 in Calm   8.0 mph 76 % 0.0 in
23:42 19.2 °F 15.1 °F 1021.9 in NNE 1.6 mph 6.4 mph 77 % 0.0 in
23:47 19.0 °F 14.9 °F 1021.9 in Calm   6.4 mph 77 % 0.0 in
23:57 18.9 °F 15.0 °F 1021.9 in Calm   4.8 mph 78 % 0.0 in
Meteo18
Compliments of Weather Underground - 4 mb

Script developed by  Jim McMurry - jmcmurry@mwt.net Adapted for the template by  Wim van der Kuil - Leuven-Template.eu

You find our weather info also at:

European Weather Network

Weather Underground

Equipment we use:

Weather-station
Davis Vue

Weather-program
Meteobridge

Weather-server
Raspberry PI 2 B+

Provider
1 and 1

Davis Vue

Meteobridge

Raspberry PI 2 B+

1 and 1